EW0352 Weather Reports


time (UTC)temp
C
wind
direction
speed
KPH
gust
KPH
rain 1hr
cm
rain 24hr
cm
rain mn
cm
humidity
%
barometer
mb
20260502233206 18 262 4.8 20.9 0.00 0.00 0.00 35 1011.6
20260502232705 18 280 9.7 24.1 0.00 0.00 0.00 35 1011.6
20260502232205 18 287 8.0 14.5 0.00 0.00 0.00 34 1011.7
20260502231705 18 243 3.2 9.7 0.00 0.00 0.00 35 1011.8
20260502231206 18 210 4.8 12.9 0.00 0.00 0.00 34 1011.7
20260502230206 18 255 3.2 11.3 0.00 0.00 0.00 34 1011.8
20260502225705 18 241 6.4 14.5 0.00 0.00 0.00 34 1011.8
20260502225205 18 218 6.4 14.5 0.00 0.00 0.00 33 1011.9
20260502224706 18 200 8.0 22.5 0.00 0.00 0.00 33 1011.8
20260502224206 18 247 3.2 11.3 0.00 0.00 0.00 35 1011.9
20260502223706 18 234 3.2 14.5 0.00 0.00 0.00 35 1012.0
20260502223205 18 252 6.4 19.3 0.00 0.00 0.00 33 1012.1
20260502222705 18 251 1.6 8.0 0.00 0.00 0.00 35 1012.1
20260502222205 18 247 4.8 11.3 0.00 0.00 0.00 34 1012.2
20260502221706 18 253 4.8 11.3 0.00 0.00 0.00 35 1012.2
20260502221205 18 221 8.0 19.3 0.00 0.00 0.00 33 1012.2
20260502220705 18 252 3.2 19.3 0.00 0.00 0.00 35 1012.3
20260502220207 18 254 1.6 19.3 0.00 0.00 0.00 35 1012.4
20260502215705 18 175 8.0 19.3 0.00 0.00 0.00 34 1012.6
20260502215206 18 284 8.0 19.3 0.00 0.00 0.00 34 1012.6
20260502214205 18 244 6.4 14.5 0.00 0.00 0.00 34 1012.7
20260502213706 18 260 9.7 19.3 0.00 0.00 0.00 32 1012.8
20260502212706 19 261 9.7 19.3 0.00 0.00 0.00 32 1012.9
20260502212206 20 223 8.0 16.1 0.00 0.00 0.00 33 1013.0
20260502211705 19 263 8.0 14.5 0.00 0.00 0.00 35 1013.0
20260502211205 18 279 6.4 16.1 0.00 0.00 0.00 35 1013.2
20260502210206 18 231 6.4 19.3 0.00 0.00 0.00 33 1013.3
20260502205705 18 290 9.7 27.4 0.00 0.00 0.00 34 1013.5
20260502205205 18 200 9.7 20.9 0.00 0.00 0.00 34 1013.6
20260502203205 18 263 8.0 14.5 0.00 0.00 0.00 34 1014.0
20260502202706 18 225 8.0 20.9 0.00 0.00 0.00 35 1014.1
20260502201706 18 218 9.7 16.1 0.00 0.00 0.00 35 1014.4
20260502201206 18 141 3.2 12.9 0.00 0.00 0.00 37 1014.4
20260502200706 18 250 11.3 25.7 0.00 0.00 0.00 36 1014.7
20260502200205 18 201 14.5 37.0 0.00 0.00 0.00 35 1014.7
20260502195705 18 257 6.4 19.3 0.00 0.00 0.00 35 1014.8
20260502195206 18 250 6.4 12.9 0.00 0.00 0.00 36 1015.0
20260502194205 17 264 4.8 16.1 0.00 0.00 0.00 36 1015.1
20260502193707 17 255 6.4 16.1 0.00 0.00 0.00 36 1015.2
20260502193206 17 263 6.4 19.3 0.00 0.00 0.00 35 1015.3
20260502192206 16 178 12.9 22.5 0.00 0.00 0.00 37 1015.5
20260502191706 16 233 8.0 19.3 0.00 0.00 0.00 37 1015.7
20260502191206 16 189 9.7 16.1 0.00 0.00 0.00 36 1015.8
20260502190206 16 217 8.0 24.1 0.00 0.00 0.00 36 1016.0
20260502185205 16 219 4.8 14.5 0.00 0.00 0.00 35 1016.2
20260502184706 16 213 3.2 19.3 0.00 0.00 0.00 39 1016.2
20260502184206 16 211 4.8 11.3 0.00 0.00 0.00 35 1016.4
20260502183705 16 261 9.7 25.7 0.00 0.00 0.00 36 1016.6
20260502183206 16 257 4.8 14.5 0.00 0.00 0.00 37 1016.6
20260502182706 15 257 11.3 19.3 0.00 0.00 0.00 39 1016.7
20260502182206 15 269 8.0 16.1 0.00 0.00 0.00 36 1016.8
20260502181206 15 182 9.7 19.3 0.00 0.00 0.00 37 1016.8
20260502180706 15 197 8.0 19.3 0.00 0.00 0.00 38 1017.0
20260502180206 15 297 4.8 11.3 0.00 0.00 0.00 38 1017.1
20260502170206 14 258 8.0 16.1 0.00 0.00 0.00 38 1018.1
20260502164206 13 267 8.0 19.3 0.00 0.00 0.00 41 1018.4
20260502163706 13 269 3.2 20.9 0.00 0.00 0.00 38 1018.5
20260502161706 13 256 9.7 20.9 0.00 0.00 0.00 41 1018.8
20260502161206 13 247 4.8 19.3 0.00 0.00 0.00 42 1018.8
20260502160707 13 224 8.0 12.9 0.00 0.00 0.00 41 1018.9
20260502160206 13 222 4.8 19.3 0.00 0.00 0.00 44 1018.9
20260502152206 12 247 6.4 16.1 0.00 0.00 0.00 44 1019.3
20260502151206 12 275 4.8 12.9 0.00 0.00 0.00 45 1019.4
20260502150706 12 259 3.2 14.5 0.00 0.00 0.00 50 1019.4
20260502130707 5 170 1.6 4.8 0.00 0.00 0.00 70 1020.1
20260502130207 5 169 3.2 4.8 0.00 0.00 0.00 70 1020.1
20260502123206 3 203 1.6 4.8 0.00 0.00 0.00 78 1020.0
20260502122706 2 207 1.6 4.8 0.00 0.00 0.00 79 1020.0
20260502122207 2 290 0.0 3.2 0.00 0.00 0.00 80 1019.9
20260502121707 2 290 0.0 0.0 0.00 0.00 0.00 80 1019.9
20260502121207 2 290 0.0 0.0 0.00 0.00 0.00 80 1020.0
20260502120707 2 290 0.0 0.0 0.00 0.00 0.00 80 1019.9
20260502120207 2 290 0.0 0.0 0.00 0.00 0.00 79 1019.9
20260502115706 2 290 0.0 0.0 0.00 0.00 0.00 80 1019.9
20260502115206 1 290 0.0 1.6 0.00 0.00 0.00 80 1019.8
20260502114706 1 290 1.6 3.2 0.00 0.00 0.00 80 1019.8
20260502114206 1 293 1.6 4.8 0.00 0.00 0.00 80 1019.8
20260502113706 1 210 0.0 3.2 0.00 0.00 0.00 79 1019.8
20260502113206 1 210 0.0 0.0 0.00 0.00 0.00 79 1019.8
20260502112706 1 210 0.0 1.6 0.00 0.00 0.00 78 1019.7
20260502112206 1 210 0.0 0.0 0.00 0.00 0.00 78 1019.7
20260502111706 1 210 0.0 0.0 0.00 0.00 0.00 77 1019.7
20260502111207 1 210 0.0 0.0 0.00 0.00 0.00 76 1019.6
20260502110707 2 210 0.0 0.0 0.00 0.00 0.00 76 1019.6
20260502110206 2 210 0.0 0.0 0.00 0.00 0.00 75 1019.6
20260502105706 2 210 0.0 0.0 0.00 0.00 0.00 75 1019.6
20260502105206 2 210 0.0 0.0 0.00 0.00 0.00 75 1019.6
20260502104706 2 210 0.0 0.0 0.00 0.00 0.00 74 1019.7
20260502104207 2 210 0.0 3.2 0.00 0.00 0.00 74 1019.7
20260502103206 2 210 0.0 3.2 0.00 0.00 0.00 73 1019.6
20260502102706 2 210 0.0 0.0 0.00 0.00 0.00 73 1019.6
20260502101207 2 210 0.0 1.6 0.00 0.00 0.00 71 1019.6
20260502100706 2 210 0.0 1.6 0.00 0.00 0.00 71 1019.6
20260502100206 2 210 0.0 0.0 0.00 0.00 0.00 71 1019.6
20260502091207 2 216 1.6 3.2 0.00 0.00 0.00 72 1019.5
20260502090707 2 222 1.6 4.8 0.00 0.00 0.00 72 1019.5
20260502090207 2 267 1.6 3.2 0.00 0.00 0.00 72 1019.5
20260502070705 3 267 0.0 1.6 0.00 0.00 0.00 72 1019.8
20260502070205 3 267 0.0 1.6 0.00 0.00 0.00 71 1019.8
20260502065704 3 267 0.0 0.0 0.00 0.00 0.00 71 1019.8
20260502065206 3 267 0.0 0.0 0.00 0.00 0.00 71 1019.8
20260502064705 3 267 0.0 0.0 0.00 0.00 0.00 70 1019.9
20260502064204 3 267 0.0 0.0 0.00 0.00 0.00 70 1019.9
20260502063704 3 267 0.0 1.6 0.00 0.00 0.00 70 1019.9
20260502062705 3 267 0.0 0.0 0.00 0.00 0.00 70 1019.9
20260502062205 3 267 0.0 0.0 0.00 0.00 0.00 70 1019.9
20260502061704 3 267 0.0 0.0 0.00 0.00 0.00 70 1019.8
20260502061204 3 267 0.0 0.0 0.00 0.00 0.00 70 1019.9
20260502060705 3 267 0.0 0.0 0.00 0.00 0.00 70 1019.9
20260502060204 3 267 0.0 0.0 0.00 0.00 0.00 70 1019.9
20260502055704 3 267 0.0 0.0 0.00 0.00 0.00 69 1019.9
20260502055205 3 267 0.0 0.0 0.00 0.00 0.00 69 1019.9
20260502054705 3 267 0.0 0.0 0.00 0.00 0.00 69 1020.0
20260502054205 3 267 0.0 0.0 0.00 0.00 0.00 69 1020.0
20260502053705 3 267 0.0 0.0 0.00 0.00 0.00 69 1020.0
20260502053205 3 267 0.0 0.0 0.00 0.00 0.00 69 1020.0
20260502052704 4 267 0.0 0.0 0.00 0.00 0.00 69 1019.9
20260502052205 4 267 0.0 0.0 0.00 0.00 0.00 68 1019.9
20260502051705 4 267 0.0 0.0 0.00 0.00 0.00 68 1019.9
20260502050704 4 267 0.0 0.0 0.00 0.00 0.00 67 1019.9
20260502050205 4 267 0.0 0.0 0.00 0.00 0.00 66 1019.9
20260502045205 4 267 0.0 0.0 0.00 0.00 0.00 66 1019.8
20260502044705 4 267 0.0 0.0 0.00 0.00 0.00 65 1019.8
20260502044205 4 267 0.0 0.0 0.00 0.00 0.00 65 1019.8
20260502043705 4 267 0.0 0.0 0.00 0.00 0.00 64 1019.8
20260502043205 4 267 0.0 0.0 0.00 0.00 0.00 64 1019.8
20260502042205 5 267 0.0 0.0 0.00 0.00 0.00 62 1019.8
20260502041705 5 267 0.0 0.0 0.00 0.00 0.00 62 1019.8
20260502040704 5 267 0.0 0.0 0.00 0.00 0.00 61 1019.8
20260502040206 5 267 0.0 0.0 0.00 0.00 0.00 60 1019.8
20260502035705 5 267 0.0 0.0 0.00 0.00 0.00 60 1019.8
20260502035205 5 267 0.0 0.0 0.00 0.00 0.00 59 1019.8
20260502034705 5 267 0.0 0.0 0.00 0.00 0.00 59 1019.8
20260502034205 5 267 0.0 1.6 0.00 0.00 0.00 57 1019.9
20260502033705 6 267 0.0 0.0 0.00 0.00 0.00 58 1019.9
20260502033205 6 267 0.0 0.0 0.00 0.00 0.00 57 1019.9
20260502032705 6 267 0.0 0.0 0.00 0.00 0.00 56 1019.9
20260502032206 6 267 0.0 0.0 0.00 0.00 0.00 55 1020.0
20260502031705 6 267 0.0 0.0 0.00 0.00 0.00 55 1019.9
20260502030705 6 267 0.0 0.0 0.00 0.00 0.00 54 1019.9
20260502030205 6 267 0.0 0.0 0.00 0.00 0.00 53 1019.9
20260502025204 6 267 0.0 0.0 0.00 0.00 0.00 52 1019.9
20260502024705 7 267 0.0 0.0 0.00 0.00 0.00 51 1019.9
20260502024205 7 267 0.0 0.0 0.00 0.00 0.00 50 1019.9
20260502023205 7 267 0.0 0.0 0.00 0.00 0.00 49 1019.8
20260502022706 7 267 0.0 0.0 0.00 0.00 0.00 48 1019.8
20260502021705 8 267 0.0 0.0 0.00 0.00 0.00 46 1019.8
20260502021205 8 267 0.0 0.0 0.00 0.00 0.00 45 1019.8
20260502020705 8 267 0.0 0.0 0.00 0.00 0.00 44 1019.7
20260502020205 8 267 0.0 0.0 0.00 0.00 0.00 42 1019.6
20260502015706 8 267 0.0 0.0 0.00 0.00 0.00 41 1019.6
20260502015205 9 267 1.6 3.2 0.00 0.00 0.00 41 1019.5
20260502014705 9 267 0.0 1.6 0.00 0.00 0.00 39 1019.5
20260502013705 10 267 0.0 3.2 0.00 0.00 0.00 39 1019.3
20260502013205 10 267 1.6 4.8 0.00 0.00 0.00 38 1019.3
20260502012705 10 266 3.2 4.8 0.00 0.00 0.00 38 1019.3
20260502012205 10 291 1.6 4.8 0.00 0.00 0.00 37 1019.3
20260502011705 10 282 1.6 4.8 0.00 0.00 0.00 38 1019.3
20260502011206 10 288 3.2 9.7 0.00 0.00 0.00 37 1019.2
20260502010705 10 288 1.6 4.8 0.00 0.00 0.00 37 1019.2
20260502010206 10 279 4.8 8.0 0.00 0.00 0.00 36 1019.2
20260502005707 10 271 3.2 12.9 0.00 0.00 0.00 35 1019.2
20260502005205 11 281 6.4 14.5 0.00 0.00 0.00 36 1019.2
20260502004205 11 343 4.8 8.0 0.00 0.00 0.00 33 1019.2
20260502003705 11 343 4.8 9.7 0.00 0.00 0.00 34 1019.2
20260502002706 12 316 3.2 8.0 0.00 0.00 0.00 33 1019.2
20260502001206 11 8 3.2 4.8 0.00 0.00 0.00 35 1019.1
20260502000706 11 340 1.6 4.8 0.00 0.00 0.00 35 1019.1
20260502000206 11 23 3.2 4.8 0.00 0.00 0.00 35 1019.1
20260501235705 11 293 8.0 14.5 0.00 0.00 0.00 35 1019.1
20260501235206 11 0 3.2 11.3 0.00 0.00 0.00 37 1019.2
20260501234706 11 289 4.8 11.3 0.00 0.00 0.00 35 1019.2
20260501234206 10 270 4.8 11.3 0.00 0.00 0.00 35 1019.1